Location: ????????
(55.7667°N, 37.4833°E)
Time: 13:37:45
(UTC+00:00)

NOSS 2-1 (C) - Pass Details

Date: 19 May 2025
Orbit: 378 x 1699 km, 63.3° (Epoch: 19 June)

Event Time Altitude Azimuth Distance (km) Brightness Sun altitude
Exits shadow 21:08:43 23° 216° (SW) 935 4.1 -14.2°
Maximum altitude 21:10:32 66° 138° (SE) 433 2.5 -14.2°
Drops below altitude 10° 21:13:29 10° 56° (NE) 1,405 5.8 -14.2°
Sets 21:15:28 0° 53° (NE) 2,279 7.0 -14.2°
